{"data":{"norad_id":68474,"epoch":"2026-09-20T03:07:54.939072Z","epoch_age_seconds":100755,"freshness":"FRESH","line1":"1 68474U 26067BL  26263.13049698  .00001157  00000+0  11697-3 0  9999","line2":"2 68474  97.7652 220.0820 0001082 340.9284  19.1895 14.92933807 25895","mean_motion":14.92933807,"eccentricity":0.0001082,"inclination_deg":97.7652,"raan_deg":220.082,"arg_perigee_deg":340.9284,"mean_anomaly_deg":19.1895,"bstar":0.00011697,"rev_number":2589,"period_min":96.454376828242,"perigee_km":588.03959396215,"apogee_km":589.54723770414,"semimajor_km":6966.9304158331,"source":"CELESTRAK","updated_at":"2026-09-20T09:00:24.242372Z"}}